Regional Weather Roundup
Issued by NWS Kansas City/Pleasant Hill, MO

Home | Current Version | Previous Version | Text Only | Print | Product List | Glossary On
Versions: 1 2 3 4 5 6 7 8 9 10 11 12 13 14 15 16 17 18 19 20 21 22 23 24 25 26 27 28 29 30 31 32 33 34 35 36 37 38 39 40 41 42 43 44 45 46 47 48 49 50
000
ASUS43 KEAX 080010
RWREAX

WEATHER ROUNDUP FOR EASTERN KANSAS AND NORTHWEST MISSOURI
NATIONAL WEATHER SERVICE KANSAS CITY/PLEASANT HILL MO
600 PM CST WED DEC 07 2016

KSZ040-057-103>105-MOZ028-029-037-043-080100-
...KANSAS CITY METROPOLITAN AREA...

CITY           SKY/WX    TMP DP  RH WIND       PRES   REMARKS
K.C. INTL      PTCLDY    24  11  57 NW8       30.37R WCI  15
6HR MIN TEMP:  24; 6HR MAX TEMP:  27; 6HR PCP:  0.01;

K.C. DOWNTOWN  MOCLDY    27  15  61 NW7       30.39R WCI  19
6HR MIN TEMP:  27; 6HR MAX TEMP:  28; 6HR PCP: TRACE;

LEES SUMMIT    CLOUDY    25  17  72 VRB5      30.36R WCI  19
6HR MIN TEMP:  25; 6HR MAX TEMP:  28; 6HR PCP:  0.01;

OLATHE - IXD   CLOUDY    25  17  72 NW8       30.38R WCI  16
6HR MIN TEMP:  24; 6HR MAX TEMP:  27; 6HR PCP: TRACE;

OLATHE - OJC   CLOUDY    24  15  68 NW10      30.37R WCI  14
6HR MIN TEMP:  24; 6HR MAX TEMP:  26; 6HR PCP: TRACE;

LAWRENCE       CLOUDY    25  17  72 W7        30.40R WCI  17

$$

MOZ001>008-011>017-020>025-030>033-038>040-044>046-053-054-080100-
...NORTHERN AND CENTRAL MISSOURI...

CITY           SKY/WX    TMP DP  RH WIND       PRES   REMARKS
ST. JOSEPH     PTCLDY    23  11  60 NW9       30.39R WCI  13
6HR MIN TEMP:  23; 6HR MAX TEMP:  27;

MOSBY            N/A     28  12  50 NW10      30.38R WCI  19
WARRENSBURG    CLOUDY    27  21  80 W6        30.37R WCI  20
WHITEMAN AFB   MOCLDY    27  27 100 W9        30.35R WCI  18
CLINTON        LGT RAIN  28  25  86 NW5       30.36R WCI  23
SEDALIA        MOCLDY    27  22  81 W8        30.35R WCI  19
6HR MIN TEMP:  27; 6HR MAX TEMP:  34; 6HR PCP: TRACE;

WARSAW         NOT AVBL
CHILLICOTHE      N/A     26  11  52 NW12G17   30.36R WCI  16
6HR MIN TEMP:  26; 6HR MAX TEMP:  30;

KIRKSVILLE     CLOUDY    25  13  60 W10       30.30R WCI  15
6HR MIN TEMP:  25; 6HR MAX TEMP:  31;


$$

MOZ041-047>049-056>058-063>065-088>090-097-080100-
...EASTERN AND SOUTHERN MISSOURI...

CITY           SKY/WX    TMP DP  RH WIND       PRES   REMARKS
ST. LOUIS INTL CLOUDY    36  17  46 W8        30.27R WCI  30
6HR MIN TEMP:  36; 6HR MAX TEMP:  40;

SPIRIT OF STL  CLOUDY    34  21  59 W6        30.28R WCI  29
COLUMBIA       CLOUDY    29  22  75 W13       30.31R WCI  19
JEFFERSON CITY CLOUDY    30  23  75 W9        30.34R WCI  22
ROLLA          FLURRIES  30  23  75 NW8       30.28R WCI  22
OSAGE BEACH    FLURRIES  29  27  92 NW5       30.34R WCI  24
SPRINGFIELD    FLURRIES  31  23  72 N15       30.29R WCI  20
BRANSON        CLOUDY    32  23  69 CALM      30.26R
JOPLIN         FLURRIES  29  26  89 N12G18    30.36R WCI  19
WEST PLAINS    CLOUDY    35  17  47 N8        30.25R WCI  29

$$

IAZ060-094-KSZ022-034>040-054-083-096-NEZ052-066-093-080100-
...KANSAS...SOUTHEAST NEBRASKA AND IOWA...

CITY           SKY/WX    TMP DP  RH WIND       PRES   REMARKS
TOPEKA         PTCLDY    25  15  66 NW6       30.41R WCI  18
6HR MIN TEMP:  25; 6HR MAX TEMP:  28; 6HR PCP:  0.01;

MANHATTAN      CLEAR     21  12  68 CALM      30.42R
EMPORIA        PTCLDY    23  19  85 NW7       30.40R WCI  15
CHANUTE        LGT SNOW  28  24  85 N8        30.38R FOG     WCI  20
WICHITA        MOCLDY    27  20  75 N13       30.40R WCI  16
OMAHA          PTCLDY    22   7  52 NW13      30.37R WCI  10
LINCOLN        CLEAR     22   6  50 NW8       30.41R WCI  12
FALLS CITY     CLEAR     21  10  62 NW8       30.39R WCI  11
LAMONI         CLEAR     19  11  70 W10       30.31R WCI   7
DES MOINES     PTCLDY    22   9  57 NW17      30.29R WCI   8

$$




USA.gov is the U.S. government's official web portal to all federal, state and local government web resources and services.